Location: Holcomb Observatory
(44.4922°N, 73.1654°W)
Time: 10:52:33
(UTC-04:00)

Daily predictions for brighter satellites

Satellite Brightness Start Highest point End
(mag) Time Altitude Azimuth Time Altitude Azimuth Time Altitude Azimuth
Cosmos 1633 Rocket 3.7 20:05:25 10° N 20:09:28 37° ENE 20:13:30 10° SE
Cosmos 2333 Rocket 2.9 20:05:25 10° SSE 20:10:20 31° ESE 20:15:16 10° NE
SL-16 R/B 4.5 20:09:51 10° WSW 20:14:46 30° NW 20:19:44 10° N
COSMOS 2428 2.8 20:09:47 10° S 20:15:23 58° ESE 20:21:01 10° NNE
Cosmos 1844 Rocket 2.7 20:11:33 10° NNW 20:17:16 82° ENE 20:22:55 10° SSE
CZ-2D R/B 3.4 20:13:30 10° S 20:17:18 78° WSW 20:21:08 10° NNW
NOSS 3-3 (A) 4.3 20:12:05 10° S 20:17:43 43° ESE 20:23:51 10° NE
NOSS 3-3 (C) 4.3 20:12:13 10° S 20:17:50 43° ESE 20:23:57 10° NE
Cosmos 2333 4.2 20:12:18 10° S 20:17:52 63° ESE 20:23:25 10° NNE
Cosmos 1844 3.8 20:14:55 10° NNW 20:20:37 70° ENE 20:26:20 10° SSE
Cosmos 2228 Rocket 4.3 20:17:50 10° SE 20:21:11 22° E 20:24:34 10° NE
Cosmos 2221 3.5 20:17:45 10° SSW 20:21:54 52° WNW 20:26:05 10° N
Cosmos 1455 2.9 20:20:00 10° SSE 20:23:26 33° E 20:26:55 10° NNE
Cosmos 1408 4.2 20:22:06 10° NNE 20:24:46 19° ENE 20:27:17 11° ESE
Cosmos 44 4.1 20:21:44 10° SW 20:26:08 52° NW 20:30:49 10° NNE
ERS-2 2.2 20:22:34 10° SSE 20:26:15 81° WSW 20:29:57 10° NNW
Cosmos 1892 2.7 20:24:28 10° N 20:28:21 64° E 20:32:12 10° SSE
Cosmos 2219 Rocket 2.3 20:23:37 10° S 20:29:04 52° ESE 20:34:34 10° NE
Cosmos 2237 Rocket 3.1 20:25:10 10° SSE 20:29:44 26° ESE 20:34:19 10° NE
H-2A R/B 3.6 20:27:25 10° ESE 20:30:42 18° ENE 20:33:57 10° NNE
Cosmos 2154 Rocket 4.0 20:25:48 10° S 20:32:02 74° E 20:38:16 10° NNE
Cosmos 1805 Rocket 4.2 20:29:28 10° NNW 20:33:46 60° W 20:38:01 10° S
Cosmos 2278 Rocket 2.8 20:31:32 10° NNW 20:36:57 43° ENE 20:41:43 13° SE
CZ-3B R/B 3.2 20:35:55 10° NNW 20:37:18 21° NNE 20:38:10 15° ENE
Cosmos 1328 Rocket 3.7 20:37:22 10° S 20:41:37 51° E 20:45:57 10° NNE
Genesis I 3.5 20:38:19 10° NNW 20:42:21 56° NE 20:45:30 16° SE
YAOGAN 6 2.8 20:39:44 10° S 20:43:19 75° WSW 20:46:59 10° NNW
Cosmos 2251 Rocket 3.9 20:37:59 10° NNW 20:43:20 67° WSW 20:48:37 10° S
Resurs 01 Rocket 1.6 20:40:04 10° SSE 20:44:31 87° ENE 20:48:59 10° NNW
NOAA 11 4.3 20:39:23 10° SSE 20:44:46 59° ENE 20:50:12 10° N
Envisat 4.1 20:44:04 10° S 20:48:54 45° W 20:53:47 10° NNW
Cosmos 44 Rocket 4.3 20:44:31 10° SW 20:49:09 50° NW 20:53:57 10° NNE
Cosmos 1470 Rocket 3.7 20:47:18 10° N 20:51:38 55° ENE 20:55:29 13° SSE
Cosmos 2341 Rocket 4.0 20:47:27 10° S 20:53:47 74° E 21:00:07 10° NNE
ATLAS CENTAUR R/B 1.1 20:52:44 10° SSW 20:56:17 53° ESE 21:00:02 10° NE
Cosmos 1340 4.0 20:54:31 10° SSW 20:58:08 43° WNW 21:01:47 10° N
Cosmos 962 Rocket 4.4 20:52:53 10° S 20:59:01 84° E 21:05:13 10° N
Cosmos 2218 Rocket 4.3 20:54:17 10° SSE 21:00:17 46° E 21:06:21 10° NNE
Cosmos 2098 Rocket 3.9 20:58:55 17° SE 21:01:35 30° E 21:05:03 10° NNE
Aureole 2 3.9 21:02:44 10° S 21:05:44 64° ESE 21:08:40 10° NNE
NOSS 0 Rocket 3.9 21:02:07 10° SSW 21:08:13 66° ESE 21:14:22 10° NNE
Cosmos 1825 2.3 21:05:58 10° N 21:09:43 56° E 21:11:38 26° SSE
Cosmos 2366 rocket 4.2 21:07:14 10° SSE 21:13:13 52° E 21:19:17 10° NNE
Cosmos 405 4.1 21:10:43 10° NNE 21:13:44 26° ENE 21:14:09 25° E
BREEZE-M DEB (TANK) 3.4 21:11:25 10° W 21:13:49 32° NNW 21:15:23 14° NE
OE (NEXTSAT) 4.4 21:13:57 10° W 21:17:31 80° NNW 21:19:32 24° ENE
SL-16 R/B 3.1 21:17:50 25° SE 21:19:05 27° ESE 21:23:45 10° NE
Cosmos 1933 Rocket 3.5 21:15:57 10° N 21:20:22 88° W 21:23:24 20° S
Meteor 2-3 Rocket 4.3 21:15:24 10° NNW 21:20:53 58° W 21:26:24 10° S
USA 186 4.3 21:20:23 10° WSW 21:21:00 11° W 21:21:38 10° WNW
SL-8 Rocket 3.9 21:16:35 10° S 21:22:53 81° E 21:29:12 10° N
GEOS 3 Rocket 4.2 21:20:23 10° NE 21:25:16 35° ESE 21:30:02 10° S
Terra 3.6 21:26:13 15° ENE 21:27:12 16° ENE 21:30:03 10° NNE
ARGOS 3.1 21:25:40 25° SSE 21:28:49 71° ENE 21:34:10 10° N
Cosmos 1339 Rocket 4.4 21:22:47 10° N 21:28:51 65° E 21:32:32 25° SSE
Cosmos 1869 3.2 21:27:19 26° S 21:29:25 68° E 21:33:26 10° NNE
ATLAS 2AS CENTAUR R/B 3.2 21:22:09 10° NW 21:29:56 63° WSW 21:35:15 20° SSE
Cosmos 1151 Rocket 3.2 21:25:46 10° SSW 21:30:00 72° W 21:34:18 10° N
Spot 2 Rocket 4.4 21:26:58 10° S 21:31:51 46° W 21:36:45 10° NNW
MetOp-B 4.1 21:30:49 28° SSE 21:33:39 69° ENE 21:38:59 10° N
Lacrosse 5 3.9 21:34:41 10° NW 21:38:36 22° NNE 21:42:31 10° ENE
BREEZE-M DEB (TANK) 3.5 21:33:40 10° W 21:39:34 39° N 21:41:04 21° NE
SPOT 5 3.4 21:40:05 34° E 21:40:58 38° ENE 21:45:06 10° N
Cosmos 1869 Rocket 3.8 21:38:16 10° N 21:42:33 49° ENE 21:43:13 45° ESE
Helios 1B rocket 3.9 21:41:06 10° NE 21:43:24 23° ENE 21:43:24 23° ENE
Cosmos 1980 3.9 21:40:01 10° SSW 21:45:43 74° WNW 21:51:25 10° NNE
Cosmos 2297 3.8 21:42:35 10° NNW 21:48:13 61° ENE 21:50:11 39° ESE
Meteor 2-10 Rocket 3.7 21:46:07 20° S 21:50:09 80° E 21:56:01 10° NNE
DMSP B5D2-2 4.4 21:45:15 10° NNE 21:50:14 42° E 21:50:48 40° ESE
Cosmos 2333 Rocket 3.5 21:49:06 10° SW 21:54:27 42° WNW 21:59:49 10° NNE
Cosmos 864 Rocket 4.5 21:49:04 12° S 21:54:53 81° W 22:01:04 10° N
Cosmos 2369 Rocket 3.9 21:52:30 10° N 21:56:33 19° NE 21:58:28 16° ENE
Cosmos 1441 Rocket 3.6 21:59:48 49° NE 21:59:48 49° NE 22:02:47 10° NNE
Helios 1A 2.9 21:59:12 65° ESE 21:59:36 71° ENE 22:03:48 10° N
Cosmos 1408 4.4 21:56:43 10° NNW 21:59:53 28° W 22:01:42 19° SW
NOSS 3-4 (A) 3.8 21:53:23 10° NW 22:00:25 79° NE 22:03:34 38° SE
NOSS 3-4 (C) 3.8 21:53:29 10° NW 22:00:31 79° NE 22:03:39 39° SE
USA 81 4.0 21:55:28 10° N 22:00:47 89° E 22:02:39 42° S
SPOT 1/Viking Rocket 3.7 22:00:10 47° ESE 22:01:19 59° ENE 22:06:28 10° N
H-2A R/B 2.2 22:07:50 39° S 22:09:39 65° WSW 22:14:36 10° NNW
SL-19 R/B 4.3 22:08:29 49° ESE 22:09:46 64° ENE 22:15:18 10° N
Cosmos 407 Rocket 3.4 22:04:48 10° NNW 22:09:56 77° WSW 22:11:08 53° S
USA 267 3.2 22:04:38 10° ENE 22:11:03 55° SE 22:17:24 10° SSW
SL-8 R/B 3.5 22:06:52 10° WSW 22:11:41 86° SSE 22:12:51 52° ENE
ERS-1 Rocket 3.1 22:10:13 43° S 22:11:47 68° WSW 22:16:49 10° NNW
Cosmos 2219 Rocket 4.3 22:08:32 10° WSW 22:13:19 28° NW 22:18:08 10° N
Cosmos 2237 Rocket 3.1 22:08:02 10° SW 22:13:28 49° WNW 22:18:57 10° NNE
Cosmos 1862 3.3 22:09:58 10° NNW 22:14:01 76° W 22:14:03 76° WSW
Cosmos 614 Rocket 4.0 22:09:09 10° NNW 22:14:21 63° ENE 22:14:58 58° E
CZ-2C R/B 4.5 22:14:39 10° NE 22:16:38 17° ENE 22:16:38 17° ENE
Cosmos 2278 Rocket 3.6 22:15:56 10° NW 22:20:51 31° WSW 22:23:35 21° SSW
Cosmos 1437 Rocket 4.1 22:19:45 10° N 22:22:10 30° NNE 22:22:10 30° NNE
Cosmos 405 Rocket 3.3 22:28:05 57° NW 22:28:05 57° NW 22:31:30 10° N
IGS 5A 4.1 22:28:29 49° NNE 22:28:29 49° NNE 22:31:50 10° N
Cosmos 1000 Rocket 4.4 22:21:52 10° N 22:28:05 81° E 22:29:25 58° SSE
Cosmos 676 Rocket 3.8 22:23:33 10° NNW 22:28:51 85° WSW 22:29:20 74° S
ATLAS 5 CENTAUR R/B 3.7 22:23:58 10° NNW 22:28:58 29° NE 22:31:07 24° ENE
SL-24 R/B 4.5 22:32:43 72° ESE 22:33:06 76° E 22:38:15 10° N
Cosmos 1821 Rocket 3.9 22:33:04 58° SSE 22:34:20 77° E 22:40:39 10° N
ATLAS CENTAUR R/B 4.0 22:32:55 10° W 22:35:35 18° NW 22:38:22 10° N
Cosmos 2056 Rocket 4.5 22:35:44 11° SW 22:40:38 47° WNW 22:45:52 10° N
Cosmos 1452 Rocket 3.5 22:42:01 69° ENE 22:42:01 69° ENE 22:46:45 10° NNE
Cosmos 1023 Rocket 4.5 22:40:04 10° NNW 22:45:14 72° WSW 22:45:14 72° WSW
USA 234 3.7 22:43:06 37° E 22:45:31 55° NNE 22:51:52 10° NW
Landsat 7 4.0 22:46:49 67° W 22:46:49 67° W 22:51:26 10° NNW
Cosmos 2123 Rocket 3.9 22:43:13 10° N 22:49:33 70° E 22:49:58 68° ESE
Cosmos 1850 Rocket 4.2 22:54:05 10° NNW 22:58:41 64° NNE 22:58:41 64° NNE
SL-16 R/B 3.0 22:59:34 23° WSW 23:02:54 48° WNW 23:08:24 10° NNE
Cosmos 2344 3.5 22:58:41 27° SW 23:03:18 88° SE 23:11:51 10° NE
Terra 2.3 23:05:06 58° NW 23:05:06 58° NW 23:09:10 10° NNW
Cosmos 1741 Rocket 4.2 23:01:04 10° NNW 23:05:49 68° N 23:05:49 68° N
Cosmos 1140 Rocket 4.2 23:02:05 10° NNW 23:06:45 46° W 23:06:45 46° W
CZ-4C R/B 3.0 23:13:19 41° NE 23:13:19 41° NE 23:17:17 10° NE
SeaSat 1 4.2 23:12:26 21° NE 23:12:38 22° NE 23:16:19 10° N
Cosmos 1241 Rocket 4.4 23:06:27 10° NW 23:12:47 82° WSW 23:12:48 82° SW
CZ-2C R/B 3.4 23:14:25 54° NNW 23:14:25 54° NNW 23:18:08 10° NNW
Cosmos 1943 Rocket 2.8 23:08:28 10° NNW 23:13:21 44° NE 23:13:21 44° NE
Meteor 1-14 Rocket 4.3 23:12:59 10° NNW 23:18:02 69° NW 23:18:02 69° NW
Helios 1B rocket 4.3 23:16:21 10° N 23:19:46 27° WNW 23:19:46 27° WNW
Lacrosse 5 2.7 23:17:39 10° NW 23:21:58 47° N 23:21:58 47° N
Cosmos 1605 Rocket 3.9 23:24:41 86° N 23:24:41 86° N 23:30:58 10° N
Cosmos 1603 4.0 23:30:41 60° NNE 23:30:41 60° NNE 23:35:14 10° NNE
Cosmos 1943 4.2 23:36:34 38° NE 23:36:34 38° NE 23:40:05 10° NNE
Cosmos 2369 Rocket 2.6 23:35:35 10° NNW 23:40:15 61° NW 23:40:15 61° NW
Mayak 1.4 23:46:42 10° NNE 23:47:28 14° NE 23:47:28 14° NE
